{"data":{"norad_id":67523,"epoch":"2026-09-20T20:29:23.543808Z","epoch_age_seconds":66122,"freshness":"FRESH","line1":"1 67523U 26013B   26263.85374472 -.00000108  00000+0  33556-4 0  9999","line2":"2 67523  50.0072  12.6747 0000690 109.5096 250.5851 13.29331138 32770","mean_motion":13.29331138,"eccentricity":6.9e-5,"inclination_deg":50.0072,"raan_deg":12.6747,"arg_perigee_deg":109.5096,"mean_anomaly_deg":250.5851,"bstar":3.3556e-5,"rev_number":3277,"period_min":108.32515381882,"perigee_km":1148.76778335,"apogee_km":1149.8065678863,"semimajor_km":7527.4241756181,"source":"CELESTRAK","updated_at":"2026-09-21T09:00:16.678614Z"}}